[[{"header":{"parameterUnit":"m.s-1","parameterCategory":1,"la1":30.2991,"la2":30.254,"lo1":-89.0895,"lo2":-89.0444,"dy":0.0017,"dx":0.0017,"nx":28,"ny":28,"refTime":"2025-03-13T03:00:00:Z","depth":0,"parameterNumber":2,"parameterNumberName":"U-component_of_WINDS"},"data":[0,0,0,0,0,0,0,0,0,0,0,0,0,0,0,0,0,0,0,0,0,0,0,0,0,0,0,0,0,0,0,0,0,0,0,0,0,0,0,0,0,0,0,0,0,0,0,0,0,0,0,0,0,0,0,0,0,0,-1.5104,-1.5104,0,-1.5047,-1.5046,-1.5045,-1.4962,-1.4961,-1.4959,-1.4958,-1.49,-1.4899,-1.4899,0,0,0,0,0,0,0,0,0,0,0,0,0,-1.5143,-1.5142,-1.5104,-1.5103,-1.5103,-1.5047,-1.5046,-1.5045,-1.4962,-1.4961,-1.4959,-1.4957,-1.49,-1.4899,-1.4899,0,0,0,0,0,0,0,0,0,0,0,0,0,-1.511,-1.5142,-1.5104,-1.5055,-1.505,-1.5047,-1.5046,-1.5045,-1.4963,-1.4961,-1.4958,-1.4956,-1.49,-1.4899,-1.4899,-1.494,0,0,-1.4898,-1.4898,0,0,0,0,0,0,0,0,-1.5112,-1.5108,-1.5063,-1.5058,-1.5052,-1.5009,-1.5038,-1.501,-1.4963,-1.4996,-1.4958,-1.4955,-1.4938,-1.4934,-1.4928,-1.4938,-1.4935,-1.4898,-1.4898,-1.4898,-1.4898,0,0,0,0,0,0,0,-1.5114,-1.511,-1.5081,-1.5062,-1.5056,-1.5035,-1.5028,-1.5032,-1.498,-1.4993,-1.4987,-1.4981,-1.4935,-1.4929,-1.4926,-1.4934,-1.4898,-1.4898,-1.4898,-1.4897,-1.4973,-1.4975,0,0,0,0,0,0,-1.5124,-1.5113,-1.5083,-1.508,-1.5077,-1.5037,-1.5029,-1.5025,-1.4979,-1.497,-1.4983,-1.4977,-1.493,-1.4927,-1.4924,-1.4968,-1.4898,-1.4897,-1.4897,-1.4971,-1.4974,-1.4976,0,0,0,0,0,0,-1.5125,-1.5122,-1.5086,-1.5095,-1.5088,-1.5038,-1.5035,-1.5025,-1.5019,-1.4972,-1.4962,-1.4986,-1.4928,-1.4924,-1.4936,-1.4965,-1.4897,-1.4897,-1.4968,-1.4972,-1.4975,-1.5057,0,0,0,0,0,0,-1.5126,-1.5123,-1.5138,-1.5096,-1.5088,-1.5099,-1.5037,-1.5026,-1.5019,-1.5011,-1.4973,-1.4964,-1.4926,-1.4937,-1.4936,-1.4963,-1.4897,-1.4966,-1.497,-1.4974,-1.5051,-1.5063,-1.5072,0,0,0,0,0,-1.5128,-1.5164,-1.5139,-1.5136,-1.5106,-1.5101,-1.5097,-1.5053,-1.5022,-1.5036,-1.5006,-1.4965,-1.4962,-1.4939,-1.4937,-1.4964,-1.4964,-1.4969,-1.4974,-1.5047,-1.506,-1.5072,0,0,0,0,0,0,-1.5211,-1.5157,-1.5129,-1.5152,-1.5132,-1.5087,-1.5104,-1.5069,-1.5057,-1.505,-1.4996,-1.4988,-1.5007,-1.4987,-1.4962,-1.5001,-1.4957,-1.4962,-1.5013,-1.5026,-1.5036,-1.5039,-1.4896,0,0,0,0,0,-1.5232,-1.5232,-1.5185,-1.521,-1.5201,-1.5155,-1.5151,-1.5119,-1.5095,-1.5086,-1.5057,-1.5036,-1.503,-1.5027,-1.5019,-1.5049,-1.5038,-1.5066,-1.5077,-1.5086,-1.509,-1.5103,-1.5114,-1.4992,-1.4992,-1.4992,0,0,-1.5275,-1.5246,-1.5249,-1.5226,-1.5206,-1.5208,-1.5148,-1.5152,-1.5153,-1.5087,-1.5096,-1.5074,-1.5047,-1.5068,-1.5076,-1.5052,-1.5121,-1.5092,-1.5099,-1.5099,-1.5109,-1.5121,-1.5131,-1.4996,-1.4995,-1.4995,0,0,-1.5354,-1.5332,-1.535,-1.5331,-1.5302,-1.5271,-1.5276,-1.5236,-1.5219,-1.5227,-1.5178,-1.5178,-1.5169,-1.5151,-1.5141,-1.5214,-1.5176,-1.5213,-1.5266,-1.528,-1.5289,-1.5297,-1.5322,-1.5331,-1.5218,-1.5218,-1.5218,0,-1.5411,-1.5411,-1.5363,-1.537,-1.5361,-1.5302,-1.5319,-1.5304,-1.5274,-1.5269,-1.5243,-1.523,-1.5208,-1.5223,-1.5241,-1.5236,-1.5238,-1.5216,-1.5292,-1.5299,-1.5306,-1.5329,-1.5338,-1.5223,-1.5222,-1.5222,-1.5221,0,-1.5482,-1.5483,-1.55,-1.5472,-1.5465,-1.5478,-1.5432,-1.5431,-1.54,-1.5372,-1.538,-1.5352,-1.5336,-1.5338,-1.5308,-1.5349,-1.5335,-1.5302,-1.5255,-1.5323,-1.5343,-1.5352,-1.5229,-1.5227,-1.5226,-1.5225,0,0,-1.561,-1.5556,-1.5563,-1.5549,-1.5513,-1.5512,-1.5522,-1.5507,-1.5506,-1.5488,-1.5494,-1.5488,-1.5456,-1.5445,-1.5412,-1.5424,-1.5482,-1.5389,-1.5387,-1.5406,-1.5524,-1.5548,-1.5559,-1.5457,-1.5459,-1.546,-1.5525,0,-1.568,-1.5693,-1.565,-1.5674,-1.5673,-1.5617,-1.5626,-1.5604,-1.5578,-1.5574,-1.5546,-1.5542,-1.5501,-1.5494,-1.5503,-1.5473,-1.5504,-1.5468,-1.5461,-1.5461,-1.5468,-1.5569,-1.5595,-1.5658,-1.5533,-1.5534,-1.5535,0,-1.5763,-1.5749,-1.5772,-1.5734,-1.5732,-1.574,-1.5722,-1.5719,-1.5694,-1.5674,-1.5662,-1.5624,-1.563,-1.5588,-1.5595,-1.5571,-1.5566,-1.5551,-1.5552,-1.5548,-1.5501,-1.5566,-1.5677,-1.5686,-1.5548,-1.5547,-1.5546,0,-1.5852,-1.5839,-1.585,-1.5841,-1.5797,-1.5804,-1.5786,-1.5758,-1.5752,-1.5737,-1.5731,-1.5718,-1.571,-1.57,-1.5659,-1.5632,-1.5671,-1.5625,-1.5653,-1.5654,-1.5662,-1.5662,-1.5772,-1.5663,-1.5663,-1.5663,-1.5662,0,-1.5934,-1.595,-1.589,-1.5897,-1.5913,-1.5865,-1.5882,-1.5859,-1.5835,-1.5836,-1.5788,-1.579,-1.5737,-1.5733,-1.5702,-1.5712,-1.5709,-1.5692,-1.5683,-1.5696,-1.5698,-1.569,-1.5684,-1.5665,-1.5664,-1.5664,-1.5664,0,-1.6036,-1.5996,-1.6005,-1.5963,-1.5952,-1.5966,-1.593,-1.5934,-1.5906,-1.5908,-1.5906,-1.586,-1.5853,-1.5812,-1.5796,-1.5775,-1.5796,-1.5779,-1.5804,-1.5798,-1.5828,-1.5825,-1.5935,-1.5947,-1.5833,-1.5834,-1.5835,0,-1.609,-1.61,-1.6059,-1.6056,-1.6041,-1.6037,-1.603,-1.5983,-1.5978,-1.5949,-1.5957,-1.5947,-1.5935,-1.5927,-1.5892,-1.588,-1.5861,-1.5901,-1.5859,-1.587,-1.5859,-1.5859,-1.5859,-1.5909,-1.5911,-1.5912,-1.5913,0,-1.6189,-1.6169,-1.616,-1.6144,-1.6137,-1.6123,-1.6105,-1.6106,-1.6054,-1.6051,-1.6043,-1.6034,-1.6017,-1.6007,-1.5988,-1.5969,-1.5932,-1.5927,-1.5932,-1.5944,-1.5957,-1.5948,-1.5826,-1.5924,-1.5923,-1.5922,-1.5921,-1.5921,-1.6267,-1.6273,-1.6245,-1.6237,-1.6219,-1.6204,-1.6206,-1.6177,-1.617,-1.6152,-1.6125,-1.6121,-1.6095,-1.6066,-1.605,-1.6046,-1.6024,-1.6033,-1.6035,-1.6037,-1.6043,-1.5959,-1.6043,-1.6042,-1.6042,-1.6041,-1.6041,0,-1.6362,-1.6341,-1.6334,-1.6311,-1.6305,-1.6271,-1.625,-1.6247,-1.6243,-1.6222,-1.6212,-1.6203,-1.6192,-1.6157,-1.6143,-1.6146,-1.6129,-1.6144,-1.6142,-1.6138,-1.6064,-1.6059,-1.6158,-1.6158,-1.6158,-1.6158,-1.6158,-1.6158,-1.6411,-1.642,-1.6396,-1.6395,-1.6374,-1.6369,-1.636,-1.6346,-1.6328,-1.632,-1.6311,-1.6288,-1.6261,-1.6245,-1.6233,-1.6223,-1.6219,-1.624,-1.6224,-1.6155,-1.6144,-1.6133,-1.6128,-1.624,-1.624,-1.6298,-1.6299,-1.6299]},{"header":{"parameterUnit":"m.s-1","parameterCategory":1,"la1":30.2991,"la2":30.254,"lo1":-89.0895,"lo2":-89.0444,"dy":0.0017,"dx":0.0017,"nx":28,"ny":28,"refTime":"2025-03-13T03:00:00:Z","depth":0,"parameterNumber":3,"parameterNumberName":"V-component_of_WINDS"},"data":[0,0,0,0,0,0,0,0,0,0,0,0,0,0,0,0,0,0,0,0,0,0,0,0,0,0,0,0,0,0,0,0,0,0,0,0,0,0,0,0,0,0,0,0,0,0,0,0,0,0,0,0,0,0,0,0,0,0,3.037,3.0371,0,3.0382,3.0382,3.0382,3.0416,3.0417,3.0417,3.0418,3.0426,3.0425,3.0425,0,0,0,0,0,0,0,0,0,0,0,0,0,3.0374,3.0374,3.037,3.0371,3.0371,3.0382,3.0382,3.0382,3.0416,3.0417,3.0418,3.0419,3.0426,3.0425,3.0425,0,0,0,0,0,0,0,0,0,0,0,0,0,3.0378,3.0374,3.037,3.0389,3.0391,3.0382,3.0382,3.0382,3.0416,3.0417,3.0418,3.0419,3.0426,3.0425,3.0424,3.0397,0,0,3.0422,3.0422,0,0,0,0,0,0,0,0,3.0378,3.0378,3.0386,3.0388,3.039,3.0399,3.0386,3.0387,3.0415,3.0406,3.0418,3.042,3.0415,3.0416,3.0415,3.0398,3.0398,3.0422,3.0422,3.0421,3.0421,0,0,0,0,0,0,0,3.0377,3.0377,3.0375,3.0386,3.0388,3.0396,3.0397,3.0387,3.0404,3.0407,3.0409,3.0411,3.0417,3.0416,3.0416,3.0398,3.0422,3.0421,3.0421,3.0421,3.036,3.0359,0,0,0,0,0,0,3.0375,3.0377,3.0374,3.0375,3.0386,3.0395,3.0397,3.0395,3.0404,3.0407,3.041,3.0412,3.0417,3.0416,3.0416,3.0386,3.0421,3.0421,3.042,3.0362,3.036,3.0359,0,0,0,0,0,0,3.0375,3.0374,3.0374,3.0377,3.0377,3.0393,3.0391,3.0394,3.0394,3.0407,3.0409,3.0406,3.0417,3.0417,3.0402,3.0387,3.042,3.042,3.0363,3.0361,3.036,3.0325,0,0,0,0,0,0,3.0375,3.0374,3.0365,3.0376,3.0377,3.0361,3.039,3.0394,3.0393,3.0396,3.0404,3.0406,3.0418,3.0403,3.0402,3.0386,3.0419,3.0364,3.0362,3.036,3.0328,3.0323,3.0318,0,0,0,0,0,3.0375,3.0353,3.0364,3.0363,3.0366,3.036,3.036,3.0376,3.0391,3.0382,3.039,3.0406,3.0389,3.0402,3.04,3.0384,3.0365,3.0363,3.036,3.033,3.0324,3.0318,0,0,0,0,0,0,3.0337,3.0355,3.0367,3.0349,3.0353,3.0366,3.0354,3.0369,3.0367,3.037,3.0389,3.039,3.0373,3.0377,3.0391,3.0359,3.038,3.0377,3.0357,3.0352,3.0347,3.0346,3.0418,0,0,0,0,0,3.0327,3.0322,3.0338,3.032,3.0322,3.0337,3.0335,3.0348,3.0352,3.0353,3.0361,3.0363,3.0359,3.0355,3.0352,3.0329,3.0331,3.0317,3.0312,3.0308,3.0305,3.0295,3.0289,3.0351,3.0351,3.0351,0,0,3.0305,3.0315,3.031,3.0313,3.0317,3.0311,3.0338,3.033,3.0326,3.0352,3.0339,3.0345,3.0349,3.033,3.0322,3.0333,3.0289,3.0305,3.0302,3.0301,3.0292,3.0286,3.0281,3.0349,3.0349,3.0349,0,0,3.0263,3.027,3.0257,3.0261,3.0269,3.028,3.0276,3.0287,3.0293,3.0281,3.0301,3.0295,3.0286,3.0289,3.0289,3.025,3.0264,3.0248,3.0222,3.0212,3.0207,3.0203,3.019,3.0185,3.0245,3.0245,3.0245,0,3.0235,3.0228,3.0247,3.0239,3.024,3.0265,3.0252,3.0254,3.0259,3.0259,3.0271,3.0262,3.0267,3.025,3.0241,3.024,3.0237,3.0247,3.0207,3.0203,3.0199,3.0187,3.0182,3.0243,3.0243,3.0243,3.0244,0,3.0194,3.0189,3.0177,3.0184,3.0183,3.0172,3.0189,3.0186,3.0198,3.0208,3.0195,3.0202,3.0201,3.0198,3.0208,3.0183,3.0189,3.0204,3.0225,3.0191,3.018,3.0175,3.024,3.0241,3.0241,3.0242,0,0,3.0128,3.0147,3.0142,3.0146,3.0157,3.0153,3.0143,3.0144,3.0141,3.0144,3.0136,3.0129,3.0143,3.0144,3.0155,3.0146,3.0116,3.0162,3.0162,3.0154,3.0089,3.0079,3.0073,3.0126,3.0125,3.0124,3.0089,0,3.0089,3.0075,3.0093,3.0074,3.007,3.0095,3.0086,3.0091,3.01,3.0097,3.0106,3.0102,3.012,3.0121,3.0112,3.0121,3.0103,3.0124,3.0119,3.0118,3.0118,3.0067,3.0056,3.0023,3.0085,3.0084,3.0084,0,3.0042,3.0045,3.0027,3.0041,3.0039,3.0032,3.0035,3.0032,3.0038,3.0045,3.0046,3.0061,3.0052,3.0073,3.006,3.0074,3.0073,3.0077,3.0076,3.0077,3.0099,3.0067,3.0012,3.0008,3.0077,3.0077,3.0078,0,2.9997,2.9996,2.9986,2.9988,3.0004,2.9998,3.0004,3.0011,3.0011,3.0013,3.0014,3.0013,3.0014,3.0013,3.0028,3.0041,3.0014,3.0035,3.002,3.0019,3.0013,3.0013,2.9958,3.0011,3.0011,3.0011,3.0011,0,2.9952,2.994,2.9966,2.996,2.9948,2.9968,2.9955,2.9963,2.997,2.9965,2.9985,2.998,2.9999,2.9996,3.0007,2.9996,2.9995,3.0,3.0004,2.9999,2.9999,2.9999,3.0002,3.001,3.001,3.001,3.001,0,2.99,2.9917,2.9907,2.9923,2.9927,2.9917,2.9931,2.9925,2.9936,2.993,2.9929,2.9946,2.9943,2.9958,2.9957,2.9964,2.9948,2.9954,2.9946,2.9949,2.9933,2.9934,2.9876,2.987,2.9926,2.9925,2.9925,0,2.9871,2.9863,2.9879,2.9878,2.9883,2.9881,2.9882,2.9901,2.9901,2.9909,2.9903,2.9902,2.9903,2.9897,2.9908,2.9908,2.9916,2.9895,2.9916,2.9912,2.9917,2.9918,2.9917,2.9891,2.989,2.989,2.9889,0,2.9818,2.9827,2.9828,2.9832,2.9833,2.9837,2.9842,2.9839,2.9861,2.9859,2.9858,2.9859,2.9859,2.9859,2.9861,2.9866,2.9881,2.9883,2.988,2.9875,2.9872,2.9875,2.9936,2.9884,2.9885,2.9885,2.9885,2.9886,2.9777,2.9771,2.9783,2.9783,2.979,2.9794,2.9791,2.9802,2.9802,2.9805,2.9816,2.9813,2.9821,2.9826,2.983,2.9827,2.9837,2.9831,2.983,2.9829,2.9827,2.9872,2.9827,2.9828,2.9828,2.9828,2.9828,0,2.9726,2.9735,2.9735,2.9743,2.9744,2.9759,2.9766,2.9765,2.9763,2.977,2.9771,2.977,2.977,2.9782,2.9783,2.9779,2.9786,2.9778,2.9779,2.978,2.9817,2.9821,2.9773,2.9773,2.9773,2.9773,2.9773,2.9773,2.9699,2.9692,2.9703,2.9698,2.9707,2.9706,2.9708,2.9713,2.9718,2.9717,2.9718,2.9726,2.9735,2.9737,2.9738,2.9742,2.9741,2.9732,2.9738,2.9772,2.9778,2.9783,2.9786,2.9731,2.9731,2.9701,2.9701,2.9701]}]]